Regional Weather Roundup
Issued by NWS Wilmington, NC

Home | Current Version | Previous Version | Text Only | Print | Product List | Glossary On
Versions: 1 2 3 4 5 6 7 8 9 10 11 12 13 14 15 16 17 18 19 20 21 22 23 24 25 26 27 28 29 30 31 32 33 34 35 36 37 38 39 40 41 42 43 44 45 46 47 48 49 50
000
ASUS42 KILM 050813
RWRILM
RWRILM
REGIONAL HOURLY WEATHER ROUNDUP
NATIONAL WEATHER SERVICE WILMINGTON NC
400 AM EDT SAT SEP 05 2015

NOTE: "FAIR" INDICATES FEW OR NO CLOUDS BELOW 12,000 FEET WITH NO
SIGNIFICANT WEATHER AND/OR OBSTRUCTIONS TO VISIBILITY.

...............WFO WILMINGTON COUNTY WARNING AREA...............

......COASTAL NC AND SC COUNTIES......

CITY           SKY/WX    TMP DP  RH WIND       PRES   REMARKS
WILMINGTON     PTCLDY    73  71  93 NE7       30.02R FOG
N MYRTLE BEACH PTCLDY    71  68  90 VRB5      30.01S
MYRTLE BEACH   PTCLDY    73  64  73 N5        30.03S

......INLAND NC AND SC COUNTIES.......

CITY           SKY/WX    TMP DP  RH WIND       PRES   REMARKS
LUMBERTON      PTCLDY    72  69  90 N7        30.04R
ELIZABETHTOWN  CLEAR     70  70 100 CALM      30.04R FOG
WHITEVILLE     PTCLDY    71  69  94 CALM      30.03R FOG
FLORENCE       PTCLDY    72  69  90 N8        30.04S
DARLINGTON     PTCLDY    72  66  83 N7        30.07R

....................REST OF NORTH CAROLINA......................

.........EASTERN NC.........

CITY           SKY/WX    TMP DP  RH WIND       PRES   REMARKS
CAPE HATTERAS  MOCLDY    78  72  81 NE9G16    30.00S
JACKSONVILLE   CLEAR     72  66  83 N8        30.03S
MOREHEAD CITY  LGT RAIN  76  75  97 N9        30.00R
KENANSVILLE      N/A     70  69  96 CALM      30.06R FOG
NEW BERN       CLOUDY    73  71  93 N7        30.04R
ELIZABETH CITY PTCLDY    75  71  87 N7        30.05R

.........CENTRAL NC.........

CITY           SKY/WX    TMP DP  RH WIND       PRES   REMARKS
RALEIGH DURHAM PTCLDY    70  68  93 NE6       30.09S FOG
ROCKY MOUNT    PTCLDY    70  69  97 N7        30.07S FOG
ROANOKE RAPIDS NOT AVBL
FAYETTEVILLE   PTCLDY    72  69  90 NE8       30.05R FOG
HOFFMAN        CLEAR     71  69  95 N3        30.07R FOG

.........WESTERN NC.........

CITY           SKY/WX    TMP DP  RH WIND       PRES   REMARKS
CHARLOTTE      PTCLDY    70  63  78 N5        30.11S
GREENSBORO     CLOUDY    70  67  90 NE8       30.12S
HICKORY        NOT AVBL
BOONE          NOT AVBL
ASHEVILLE      NOT AVBL

.....................REST OF SOUTH CAROLINA.....................

.........EASTERN SC.........

CITY           SKY/WX    TMP DP  RH WIND       PRES   REMARKS
CHARLESTON     PTCLDY    74  70  87 NE6       30.01S
BEAUFORT MCAS  PTCLDY    74  71  91 N6        30.00S
HILTON HEAD    CLEAR     77  77 100 CALM      30.00S

.........CENTRAL SC.........

CITY           SKY/WX    TMP DP  RH WIND       PRES   REMARKS
COLUMBIA       CLOUDY    71  67  87 N9        30.05R
ORANGEBURG     LGT RAIN  72  66  81 NE10      30.04F
SUMTER SHAW    CLOUDY    71  68  92 NW8       30.03F

.........WESTERN SC.........

CITY           SKY/WX    TMP DP  RH WIND       PRES   REMARKS
GREENVILLE     NOT AVBL
ROCK HILL      MOCLDY    72  66  81 N6        30.10S
ANDERSON       CLEAR     69  66  90 E5        30.09R
CLEMSON        NOT AVBL
GREENWOOD      PTCLDY    69  67  93 CALM      30.10R


...................COASTAL AND OFFSHORE REPORTS..................

................LOCAL PIERS AND NC RESERVE................


STATION/POSITION TIME  SKY/WX   TEMP    WIND        PRES    VSBY
                                AIR SEA DIR/SP/G
                 (UTC)          (F)     (DEG/KT/KT) (MB)    (MI)
JOHNY MRCER PIER 0700            75 84   10/  9/ 11 1015.4F
NC RESRV MASNBRO NOT AVBL
OCEAN CREST PIER NOT AVBL
SPRINGMAID  PIER 0700            73 84  330/  7/ 10 1016.3F


................COASTAL AND OFFSHORE BUOYS................


STATION/POSITION TIME  SKY/WX   TEMP    WIND        PRES    VSBY
                                AIR SEA DIR/SP/G
                 (UTC)          (F)     (DEG/KT/KT) (MB)    (MI)
DIMNDSHOAL 41025 0750            83 84   50/ 12/ 16 1015.3R
WVE H/P(F/S)=  3/ 5 WND WVE H/P(F/S)=  3/ 5 SWL H/P/D(F/S/D)=  2/ 20/ 7

CAPE LOOKOUT     0800            77      40/ 17/ 19 1015.1F
ONSLOW BAY 41036 NOT AVBL
ONSLOW BAY 41064 0708            81 82   20/ 12/ 16 1015.6F
ONSLOW BAY 41159 0725               82                N/A
WVE H/P(F/S)=  2/ 4 WND WVE H/P(F/S)=  2/ 4

5SE WRITBC 41038 0708            79 82   40/ 14/ 17 1015.5F
MASNBO INL 41110 NOT AVBL
WILM HARBR 41108 0711               83                N/A
WVE H/P(F/S)=  1/ 3 WND WVE H/P(F/S)=  2/ 3

27SE WRITB 41037 0700            77 82   60/ 12/ 17   N/A
FRYING PAN 41013 0750            82 82  350/  8/ 10 1015.6F
WVE H/P(F/S)=  1/12

SUNST NRSH 41024 0708            76      20/  8/ 12 1015.7F
CAPRS NRSH 41029 0708            80      10/ 14/ 17 1016.2R
EDISTO     41004 0750            82 84   10/ 10/ 12 1015.3R
WVE H/P(F/S)=  1/11



..........OFFSHORE BUOYS BEYOND 100 NM OFFSHORE...........
.....IN A TRIANGLE---HAT TO BERMUDA TO BAHAMAS TO HAT.....


STATION/POSITION TIME  SKY/WX   TEMP    WIND        PRES    VSBY
                                AIR SEA DIR/SP/G
                 (UTC)          (F)     (DEG/KT/KT) (MB)    (MI)
150E HAT   41001 0800            81 82   70/  8/  8 1014.9R
W BERMUDA  41048 0750            81 83   10/  6/  8 1012.8S
WVE H/P(F/S)=  2/ 9 WND WVE H/P(F/S)=  2/ 3 SWL H/P/D(F/S/D)=  2/130/ 9

ATLANTIC S 41049 0750            83 85  230/ 14/ 16 1012.8R
WVE H/P(F/S)=  4/ 6 WND WVE H/P(F/S)=  3/ 6 SWL H/P/D(F/S/D)=  2/ 90/ 9

E BAHAMAS  41046 0750            83 86  180/  4/  8 1014.1R
WVE H/P(F/S)=  2/11 SWL H/P/D(F/S/D)=  2/ 10/11

NE BAHAMAS 41047 0750            81 86  150/  8/ 12 1012.7F
WVE H/P(F/S)=  2/ 9 WND WVE H/P(F/S)=  2/ 3 SWL H/P/D(F/S/D)=  2/100/ 9

120E CANVRL41010 0720            83 85   40/  8/ 10 1013.7F

END



USA.gov is the U.S. government's official web portal to all federal, state and local government web resources and services.